TimePDT,TemperatureF,Dew PointF,Humidity,Sea Level PressureIn,VisibilityMPH,Wind Direction,Wind SpeedMPH,Gust SpeedMPH,PrecipitationIn,Events,Conditions,WindDirDegrees,DateUTC
12:15 AM,62.6,60.8,94,29.93,10.0,Calm,Calm,-,N/A,,Clear,0,2013-08-15 07:15:00
12:35 AM,60.8,60.8,100,29.93,10.0,East,3.5,-,N/A,,Clear,80,2013-08-15 07:35:00
12:55 AM,59.0,59.0,100,29.93,10.0,Calm,Calm,-,N/A,,Clear,0,2013-08-15 07:55:00
1:15 AM,59.0,59.0,100,29.92,10.0,Calm,Calm,-,N/A,,Clear,0,2013-08-15 08:15:00
1:35 AM,59.0,59.0,100,29.92,10.0,Calm,Calm,-,N/A,,Clear,0,2013-08-15 08:35:00
1:55 AM,59.0,59.0,100,29.92,7.0,Calm,Calm,-,N/A,,Clear,0,2013-08-15 08:55:00
2:15 AM,59.0,59.0,100,29.92,7.0,Calm,Calm,-,N/A,,Clear,0,2013-08-15 09:15:00
2:35 AM,59.0,59.0,100,29.92,7.0,Calm,Calm,-,N/A,,Clear,0,2013-08-15 09:35:00
2:55 AM,59.0,59.0,100,29.92,6.0,Calm,Calm,-,N/A,,Clear,0,2013-08-15 09:55:00
3:15 AM,55.4,55.4,100,29.92,4.0,Calm,Calm,-,N/A,,Clear,0,2013-08-15 10:15:00
3:35 AM,57.2,57.2,100,29.93,8.0,Calm,Calm,-,N/A,,Clear,0,2013-08-15 10:35:00
3:55 AM,57.2,57.2,100,29.92,7.0,Calm,Calm,-,N/A,,Clear,0,2013-08-15 10:55:00
4:15 AM,57.2,57.2,100,29.92,7.0,Calm,Calm,-,N/A,,Clear,0,2013-08-15 11:15:00
4:35 AM,55.4,55.4,100,29.92,0.5,Calm,Calm,-,N/A,Fog,Fog,0,2013-08-15 11:35:00
4:55 AM,55.4,55.4,100,29.92,0.2,Calm,Calm,-,N/A,Fog,Fog,0,2013-08-15 11:55:00
5:15 AM,55.4,55.4,100,29.92,7.0,Calm,Calm,-,N/A,,Clear,0,2013-08-15 12:15:00
5:35 AM,53.6,53.6,100,29.92,0.2,Calm,Calm,-,N/A,Fog,Fog,0,2013-08-15 12:35:00
5:55 AM,55.4,55.4,100,29.92,7.0,Calm,Calm,-,N/A,,Clear,0,2013-08-15 12:55:00
6:15 AM,55.4,55.4,100,29.93,10.0,Calm,Calm,-,N/A,,Clear,0,2013-08-15 13:15:00
6:35 AM,55.4,55.4,100,29.93,4.0,Calm,Calm,-,N/A,,Clear,0,2013-08-15 13:35:00
6:55 AM,55.4,55.4,100,29.94,5.0,Calm,Calm,-,N/A,,Clear,0,2013-08-15 13:55:00
7:15 AM,57.2,57.2,100,29.95,8.0,Calm,Calm,-,N/A,,Clear,0,2013-08-15 14:15:00
7:35 AM,59.0,59.0,100,29.95,8.0,Calm,Calm,-,N/A,,Clear,0,2013-08-15 14:35:00
7:55 AM,59.0,59.0,100,29.95,-9999.0,Calm,Calm,-,N/A,,Unknown,0,2013-08-15 14:55:00
8:15 AM,62.6,62.6,100,29.96,-9999.0,North,3.5,-,N/A,,Unknown,10,2013-08-15 15:15:00
8:35 AM,62.6,62.6,100,29.96,-9999.0,Calm,Calm,-,N/A,,Unknown,0,2013-08-15 15:35:00
8:55 AM,64.4,62.6,94,29.96,-9999.0,Calm,Calm,-,N/A,,Unknown,0,2013-08-15 15:55:00
9:15 AM,66.2,62.6,88,29.96,-9999.0,Calm,Calm,-,N/A,,Unknown,0,2013-08-15 16:15:00
9:35 AM,69.8,62.6,78,29.96,-9999.0,Calm,Calm,-,N/A,,Clear,0,2013-08-15 16:35:00
9:55 AM,71.6,62.6,73,29.96,-9999.0,South,3.5,-,N/A,,Clear,170,2013-08-15 16:55:00
10:15 AM,73.4,62.6,69,29.96,-9999.0,South,3.5,-,N/A,,Clear,180,2013-08-15 17:15:00
10:35 AM,75.2,62.6,65,29.96,-9999.0,SSW,3.5,-,N/A,,Clear,210,2013-08-15 17:35:00
10:55 AM,75.2,62.6,65,29.96,-9999.0,SW,9.2,-,N/A,,Clear,230,2013-08-15 17:55:00
11:15 AM,77.0,62.6,61,29.95,-9999.0,SE,4.6,-,N/A,,Clear,130,2013-08-15 18:15:00
11:35 AM,78.8,62.6,57,29.95,-9999.0,SW,8.1,-,N/A,,Clear,230,2013-08-15 18:35:00
11:55 AM,80.6,60.8,51,29.95,-9999.0,South,4.6,-,N/A,,Clear,170,2013-08-15 18:55:00
12:15 PM,82.4,59.0,45,29.95,-9999.0,NW,5.8,-,N/A,,Clear,310,2013-08-15 19:15:00
12:35 PM,84.2,62.6,48,29.94,-9999.0,NNW,8.1,-,N/A,,Clear,330,2013-08-15 19:35:00
12:55 PM,84.2,62.6,48,29.94,-9999.0,NNW,5.8,-,N/A,,Clear,330,2013-08-15 19:55:00
1:15 PM,84.2,62.6,48,29.94,-9999.0,NNW,12.7,-,N/A,,Clear,340,2013-08-15 20:15:00
1:35 PM,84.2,62.6,48,29.94,-9999.0,WNW,10.4,19.6,N/A,,Clear,290,2013-08-15 20:35:00
1:55 PM,84.2,62.6,48,29.94,-9999.0,NNW,6.9,-,N/A,,Clear,330,2013-08-15 20:55:00
2:15 PM,84.2,62.6,48,29.94,-9999.0,WSW,4.6,-,N/A,,Clear,240,2013-08-15 21:15:00
2:35 PM,84.2,62.6,48,29.94,-9999.0,WNW,5.8,-,N/A,,Clear,290,2013-08-15 21:35:00
2:55 PM,84.2,62.6,48,29.94,-9999.0,NE,4.6,-,N/A,,Clear,50,2013-08-15 21:55:00
3:15 PM,84.2,62.6,48,29.93,-9999.0,WSW,12.7,18.4,N/A,,Clear,240,2013-08-15 22:15:00
3:35 PM,84.2,62.6,48,29.94,-9999.0,WNW,4.6,-,N/A,,Clear,300,2013-08-15 22:35:00
3:55 PM,84.2,62.6,48,29.93,-9999.0,SW,10.4,21.9,N/A,,Clear,230,2013-08-15 22:55:00
4:15 PM,84.2,62.6,48,29.92,-9999.0,NNW,11.5,-,N/A,,Clear,340,2013-08-15 23:15:00
4:35 PM,84.2,62.6,48,29.92,-9999.0,North,12.7,-,N/A,,Clear,350,2013-08-15 23:35:00
4:55 PM,84.2,62.6,48,29.92,-9999.0,North,10.4,-,N/A,,Clear,350,2013-08-15 23:55:00
5:15 PM,82.4,62.6,51,29.92,-9999.0,NW,6.9,-,N/A,,Clear,310,2013-08-16 00:15:00
5:35 PM,82.4,62.6,51,29.92,-9999.0,NNW,12.7,16.1,N/A,,Clear,340,2013-08-16 00:35:00
5:55 PM,80.6,64.4,58,29.92,-9999.0,North,12.7,18.4,N/A,,Clear,350,2013-08-16 00:55:00
6:15 PM,80.6,64.4,58,29.92,-9999.0,NNW,15.0,-,N/A,,Clear,340,2013-08-16 01:15:00
6:35 PM,77.0,64.4,65,29.91,-9999.0,North,12.7,-,N/A,,Clear,350,2013-08-16 01:35:00
6:55 PM,77.0,64.4,65,29.91,-9999.0,NNW,11.5,-,N/A,,Clear,340,2013-08-16 01:55:00
7:15 PM,75.2,64.4,69,29.92,-9999.0,North,10.4,-,N/A,,Clear,360,2013-08-16 02:15:00
7:35 PM,73.4,64.4,73,29.92,-9999.0,ESE,5.8,-,N/A,,Clear,120,2013-08-16 02:35:00
7:55 PM,71.6,64.4,78,29.92,-9999.0,SSE,6.9,-,N/A,,Clear,160,2013-08-16 02:55:00
8:15 PM,71.6,64.4,78,29.93,-9999.0,SE,3.5,-,N/A,,Clear,140,2013-08-16 03:15:00
8:35 PM,69.8,64.4,83,29.93,-9999.0,ENE,3.5,-,N/A,,Clear,60,2013-08-16 03:35:00
8:55 PM,66.2,64.4,94,29.93,-9999.0,ESE,6.9,-,N/A,,Unknown,110,2013-08-16 03:55:00
9:15 PM,66.2,64.4,94,29.94,-9999.0,SE,3.5,-,N/A,,Unknown,140,2013-08-16 04:15:00
9:35 PM,66.2,64.4,94,29.94,-9999.0,Calm,Calm,-,N/A,,Unknown,0,2013-08-16 04:35:00
9:55 PM,66.2,64.4,94,29.94,-9999.0,Calm,Calm,-,N/A,,Unknown,0,2013-08-16 04:55:00
10:15 PM,66.2,64.4,94,29.95,-9999.0,SE,4.6,-,N/A,,Unknown,130,2013-08-16 05:15:00
10:55 PM,66.2,64.4,94,29.95,-9999.0,East,4.6,-,N/A,,Unknown,90,2013-08-16 05:55:00
11:15 PM,64.4,64.4,100,29.95,10.0,ENE,4.6,-,N/A,,Clear,60,2013-08-16 06:15:00
11:35 PM,62.6,62.6,100,29.95,10.0,ENE,5.8,-,N/A,,Clear,60,2013-08-16 06:35:00
11:55 PM,62.6,62.6,100,29.96,10.0,ENE,4.6,-,N/A,,Clear,60,2013-08-16 06:55:00